User: anonymous   Login
Location: Unspecified
(0.0000°N, 0.0000°E)
Time: 08:15:43
(UTC+00:00)
Language:

N. Korean satellite - Orbit

View from above orbital plane
View from above orbital plane
View from above satellite
View from above satellite

Ground track
Ground track

The orbit data is extracted from the following two-line orbital elements,

1 39026U 12072A   16122.85248148  .00004390  00000-0  18306-3 0  9991
2 39026  97.2522 148.6178 0042636 188.4991 171.5530 15.23360095187322
Epoch (UTC): 01 May 2016 20:27:34
Eccentricity: 0.0042636
inclination: 97.2522°
perigee height: 466 km
apogee height: 525 km
right ascension of ascending node: 148.6178°
argument of perigee: 188.4991°
revolutions per day: 15.23360095
mean anomaly at epoch: 171.5530°
orbit number at epoch: 18732

The dashed part of the orbit path shows where the satellite is in the earth's shadow,  

DLR